Location: Newark
(51.0000°N, 11.4100°E)
Time: 07:56:10
(UTC+00:00)

N. Korean satellite - Pass Details

Date: 25 October 2019
Orbit: 456 x 506 km, 97.2° (Epoch: 20 November)

Event Time Altitude Azimuth Distance (km) Brightness Sun altitude
Rises 04:12:24 0° 28° (NNE) 2,576 10.7 -16.5°
Reaches altitude 10° 04:15:05 10° 49° (NE) 1,698 10.0 -16.1°
Maximum altitude 04:17:30 17° 91° (E) 1,337 9.9 -15.7°
Drops below altitude 10° 04:19:55 10° 132° (SE) 1,703 10.0 -15.3°
Sets 04:22:36 0° 154° (SSE) 2,588 10.6 -14.9°
